www.pogodaiklimat.ru

Погода и климат >> Архив погоды >> Кувейт >> Sabriyah


ПОГОДА в Sabriyah

  • Прогноз погоды в Sabriyah
  • Монитор погоды в Sabriyah
  • Климат города

АРХИВ ПОГОДЫ в Sabriyah

Время (UTC), дата Ветер
(напр.,м/с)
 
Видим.   Явления Облачность Т
(С)
Тd
(С)
f
(%)
Тe
(С)
Тes
(С)
Комфортность P
(гПа)
Po
(гПа)
Тmin
(С)
Tmax
(С)
R
(мм)
R24
(мм)
S
(см)
12 17.11 СЗ 2-4
{7}
19 км н/о +26.8 +0.9 19 +25 +25 комфорт 1016.3 1016.0
15 17.11 С 2-2
{6}
17 км н/о +22.1 +0.8 24 +22 +22 комфорт 1017.3 1017.0
18 17.11 Ю 1-2
{6}
12 км н/о +18.2 +8.6 53 +20 +20 1018.3 1018.0
21 17.11 З 2 12 км н/о +15.2 +9.7 70 +15 +15 1018.4 1018.0 +11.4 +27.2
00 18.11 ЮЗ 1-1
{4}
15 км н/о +14.2 +8.5 69 +15 +15 1018.3 1018.0
03 18.11 ЮЗ 3-3
{3}
15 км н/о +12.7 +2.1 48 +12 +12 1019.2 1019.0
06 18.11 З 2-3
{4}
11 км н/о +19.1 +0.9 30 +20 +20 1021.3 1021.0
09 18.11 З 3-5
{5}
14 км н/о +26.6 +2.5 21 +25 +25 комфорт 1019.3 1019.0
12 18.11 З 2-4
{6}
16 км н/о +27.3 +6.9 27 +25 +25 комфорт 1018.0 1018.0
15 18.11 ЮВ 3-4
{5}
15 км н/о +21.6 +11.2 52 +24 +24 комфорт 1018.7 1019.0
18 18.11 ЮВ 4-4
{5}
11 км н/о +18.2 +12.8 71 +18 +18 1019.5 1020.0
21 18.11 ЮВ 4 10 км н/о +17.2 +14.5 84 +17 +17 1019.3 1019.0 +11.3 +27.8
00 19.11 Ю 1-2
{5}
8000 м н/о +16.0 +13.1 83 +17 +17 1019.0 1019.0
03 19.11 В 5-5
{6}
9000 м н/о +16.6 +13.9 84 +16 +16 1019.1 1019.0
06 19.11 Ю 2-2
{6}
8000 м н/о +21.2 +13.3 61 +24 +24 комфорт 1020.9 1021.0
09 19.11 Ю 4-9
{9}
14 км н/о +25.3 +13.3 47 +27 +27 жарко 1019.0 1019.0
12 19.11 ЮВ 8-11
{11}
11 км н/о +25.9 +8.2 33 +26 +26 жарко 1017.5 1018.0
15 19.11 ЮВ 5-6
{12}
19 км н/о +22.3 +14.1 60 +26 +26 жарко 1018.0 1018.0
18 19.11 ЮВ 5-6
{12}
15 км н/о +20.3 +15.9 76 +23 +23 комфорт 1018.6 1019.0
21 19.11 ЮВ 5 10 км н/о +18.6 +16.4 87 +19 +19 1017.8 1018.0 +15.6 +26.7
00 20.11 ЮВ 5-6
{7}
10 км н/о +18.5 +16.5 88 +19 +19 1017.4 1017.0
03 20.11 Ю 4-4
{5}
7000 м н/о +16.9 +13.8 82 +17 +17 1018.2 1018.0
06 20.11 Ю 2-4
{5}
8000 м н/о +23.7 +15.9 62 +27 +27 жарко 1018.9 1019.0
09 20.11 Ю 4-8
{9}
15 км н/о +27.1 +13.3 43 +29 +29 жарко 1016.8 1017.0
12 20.11 ЮВ 9-12
{12}
9000 м н/о +27.8 +8.4 29 +28 +28 жарко 1015.2 1015.0
15 20.11 ЮВ 6-7
{12}
10 км н/о +22.7 +16.9 70 +27 +27 душно 1015.5 1016.0
18 20.11 ЮВ 5-6
{12}
3500 м н/о +20.7 +19.1 91 +25 +25 комфорт 1015.6 1016.0
21 20.11 ЮВ 5 10 км н/о +21.0 +17.0 78 +25 +25 комфорт 1014.8 1015.0 +16.5 +28.4
00 21.11 ЮВ 6-6
{7}
9000 м н/о +22.2 +18.9 82 +28 +28 душно 1013.5 1014.0
03 21.11 ЮВ 5-6
{9}
8000 м н/о +21.8 +17.9 79 +26 +26 душно 1013.0 1013.0
09 21.11 ЮВ 5-6
{6}
н/о н/о +24.5 +11.6 44 +26 +26 жарко 1012.4 1012.0
12 21.11 ЮВ 10-13
{16}
13 км н/о +20.3 +16.6 79 +23 +23 комфорт 1011.4 1011.0
15 21.11 ЮВ 6-8
{14}
9000 м н/о +19.8 +17.7 88 +22 +22 комфорт 1011.5 1012.0
18 21.11 ЮВ 5-6
{14}
6000 м н/о +18.8 +17.5 92 +20 +20 1011.9 1012.0
21 21.11 ЮВ 4 7000 м н/о +17.0 +15.6 91 +16 +16 1011.1 1011.0 +16.9 +25.2
00 22.11 Ю 3-4
{7}
12 км н/о +16.9 +14.3 85 +17 +17 1011.3 1011.0
03 22.11 ЮЗ 5-7
{7}
16 км н/о +17.6 +14.5 82 +17 +17 1011.0 1011.0
06 22.11 ЮЗ 8-10
{10}
н/о н/о +22.1 +15.1 65 +26 +26 душно 1011.7 1012.0
09 22.11 СЗ 7-9
{13}
н/о н/о +26.1 +8.6 33 +26 +26 жарко 1010.7 1011.0
12 22.11 СЗ 7-9
{13}
н/о н/о +26.8 +4.1 23 +26 +26 жарко 1010.2 1010.0
15 22.11 СЗ 4-5
{9}
н/о н/о +22.7 +7.3 37 +24 +24 комфорт 1012.0 1012.0
18 22.11 СЗ 5-7
{9}
н/о н/о +19.3 +10.4 56 +20 +20 1013.7 1014.0
21 22.11 СЗ 5 н/о н/о +16.9 +5.4 47 +16 +16 1013.8 1014.0 +16.4 +27.2
00 23.11 С 4-4
{9}
н/о н/о +14.2 +4.6 52 +13 +13 1014.7 1015.0
03 23.11 СЗ 3-3
{5}
н/о н/о +11.6 +4.5 62 +10 +10 1015.6 1016.0
06 23.11 СЗ 4-5
{5}
н/о н/о +16.8 +3.5 41 +16 +16 1017.4 1017.0
09 23.11 СЗ 6-10
{10}
н/о н/о +22.0 +0.3 24 +21 +21 комфорт 1016.2 1016.0
12 23.11 СЗ 5-8
{11}
н/о н/о +22.4 -0.1 22 +22 +22 комфорт 1015.5 1016.0
15 23.11 СВ 2-2
{9}
н/о н/о +18.4 +0.8 31 +19 +19 1016.5 1017.0
18 23.11 В 3-4
{9}
н/о н/о +15.8 +3.1 43 +15 +15 1017.0 1017.0
21 23.11 Ю 1 н/о н/о +12.9 +3.1 51 +13 +13 1017.5 1018.0 +10.8 +22.9
00 24.11 З 2-2
{3}
н/о н/о +10.6 +2.4 57 +10 +10 1018.3 1018.0
03 24.11 СЗ 2-2
{4}
н/о н/о +10.1 +2.3 58 +9 +9 1019.2 1019.0
06 24.11 З 3-4
{4}
н/о н/о +13.8 +1.5 43 +13 +13 1020.8 1021.0

 

Местоположение метеостанции Sabriyah (Кувейт): широта 29.75 долгота 47.85 высота над уровнем моря 56 м.

В архиве по умолчанию представлена погода в Sabriyah за последнюю неделю. Архивные данные за месяц целиком и за предыдущие месяцы, начиная с января 2011 года, Вы можете получить, выбрав интересующий диапазон дат из раскрывающегося списка и нажав кнопку "Ввод!".

Внимание! Время в таблицах - всемирное. Для получения местного времени необходимо прибавить поправку, которая в Sabriyah равна 3 ч.

Смотрите также архив погоды в соседних городах и на ближайших метеорологических станциях:

Погода в Jal Aliyah (Кувейт) (30 км)
Погода в Abdaly (Кувейт) (39 км)
Погода в Mitribah (Кувейт) (47 км)
Погода в Kuwait City (Кувейт) (51 км)
Погода в Al-Shuaiba (Кувейт) (51 км)
Погода в Jahra (Кувейт) (51 км)
Погода в Bubiyan (Кувейт) (51 км)
Погода в Experimental Farm (Кувейт) (52 км)
Погода в Failaka Island (Кувейт) (52 км)
Погода в Sulaibiya (Кувейт) (55 км)

Пояснения к столбцам:

Ветер - указаны скорость ветра в м/с - средняя за 10 мин, порывы в срок и между сроками (в фигурных скобках) и направление, откуда дует ветер: С - северный, СВ - северо-восточный, В - восточный, ЮВ - юго-восточный, Ю - южный, ЮЗ - юго-западный, З - западный, СЗ - северо-западный.
Видимость - горизонтальная дальность видимости в метрах или километрах. При видимости от 1 до 10 км при отсутствии осадков обычно наблюдается дымка, при ухудшении видимости до 1 км и менее - туман. В сухую погоду видимость может ухудшаться дымом, пылью или мглою.
Явления - указаны атмосферные явления, наблюдавшиеся в срок или в последний час перед сроком; фигурными скобками обозначены явления, наблюдавшиеся между сроками (за 1-3 часа до срока); квадратными скобками обозначены град или гололедные отложения с указанием их диаметра в мм.
Облачность - указаны через наклонную черту общая и нижняя облачность в баллах и высота нижней границы облаков в метрах; квадратными скобками обозначены формы облаков: Ci - перистые, Cs - перисто-слоистые, Cc - перисто-кучевые, Ac - высококучевые, As - высокослоистые, Sc - слоисто-кучевые, Ns - слоисто-дождевые, Cu - кучевые, Cb - кучево-дождевые. Подробнее классификацию облаков см. в Атласе облаков (PDF).
T - Температура воздуха - температура, измеренная на высоте 2 м над землей.
Td - Температура точки росы - температура, при понижении до которой содержащийся в воздухе водяной пар достигнет насыщения.
f - Относительная влажность воздуха - влажноcть воздуха, измеренная на высоте 2 м над землей.
Te - Эффективная температура - температура, которую ощущает одетый по сезону человек в тени. Характеристика душности погоды. При расчете учитывается влияние влажности воздуха и скорости ветра на теплоощущения человека.
Tes - Эффективная температура на солнце - температура, которую ощущает человек, с поправкой на солнечный нагрев. Характеристика знойности погоды. Зависит от высоты солнца над горизонтом, облачности и скорости ветра. Ночью, в пасмурную погоду, а также при ветре 12 м/с и более поправка равна нулю.
P - Атмосферное давление - приведенное к уровню моря атмосферное давление.
Po - Атмосферное давление - измеренное на уровне метеостанции атмосферное давление.
Tmin - Минимальная температура - минимум температуры воздуха на высоте 2 м над землей.
Tmax - Максимальная температура - максимум температуры воздуха на высоте 2 м над землей.
R - Количество осадков - Количество выпавших осадков за период времени, мм. При наведении курсора мыши на число - период времени, за который выпало указанное количество осадков.
R24 - Количество осадков - Количество выпавших осадков за 24 часа, мм.
S - Снежный покров - Высота снежного покрова, см. При наведении курсора мыши на число - состояние снежного покрова и степень покрытия местности в баллах.